{"data":{"norad_id":53557,"epoch":"2026-09-20T12:59:01.547232Z","epoch_age_seconds":75471,"freshness":"FRESH","line1":"1 53557U 22101AG  26263.54099013  .00001762  00000+0  12878-3 0  9995","line2":"2 53557  53.1598 268.7386 0001191  75.4522 284.6601 15.08843440226379","mean_motion":15.0884344,"eccentricity":0.0001191,"inclination_deg":53.1598,"raan_deg":268.7386,"arg_perigee_deg":75.4522,"mean_anomaly_deg":284.6601,"bstar":0.00012878,"rev_number":22637,"period_min":95.437337090454,"perigee_km":538.90895597825,"apogee_km":540.5567925823,"semimajor_km":6917.8698742803,"source":"CELESTRAK","updated_at":"2026-09-21T09:00:32.926815Z"}}